Regional Weather Roundup
Issued by NWS

Home | Current Version | Previous Version | Graphics & Text | Print | Product List | Glossary On
Versions: 1 2 3 4 5 6 7 8 9 10 11 12 13 14 15 16 17 18 19 20 21 22 23 24 25 26 27 28 29 30 31 32 33 34 35 36 37 38 39
000
ASUS45 KBOU 231607
RWRCO

WEATHER ROUNDUP FOR COLORADO
NATIONAL WEATHER SERVICE DENVER/BOULDER CO
1000 AM MDT THU OCT 23 2014

NOTE: "FAIR" INDICATES FEW OR NO CLOUDS BELOW 12000 FEET WITH NO
SIGNIFICANT WEATHER AND/OR OBSTRUCTIONS TO VISIBILITY.

COZ001>005-013-030-031-231700-
...NORTHWEST COLORADO...

CITY           SKY/WX    TMP DP  RH WIND       PRES   REMARKS
CRAIG          SUNNY     45  38  76 CALM      30.29F
HAYDEN         SUNNY     45  32  61 E15       30.29F
MEEKER         SUNNY     48  36  63 CALM      30.30F
MOUNT WERNER   NOT AVBL
STEAMBOAT SPGS SUNNY     39  33  80 CALM      30.31F
WALDEN         CLOUDY    50  30  46 SW18G24   30.30F
$$

COZ006>008-011-231700-
...WEST CENTRAL VALLEYS...

CITY           SKY/WX    TMP DP  RH WIND       PRES   REMARKS
GRAND JUNCTION SUNNY     55  41  59 SE8       30.26F
MONTROSE       SUNNY     51  37  58 CALM      30.33S
EAGLE          FOG       37  36  93 CALM      30.40S VSB 0
RIFLE          SUNNY     45  38  76 CALM      30.31F
DELTA          NOT AVBL
NUCLA          SUNNY     50  34  53 CALM      30.35F
$$

COZ017>023-064>068-231700-
...SOUTHWEST COLORADO...

CITY           SKY/WX    TMP DP  RH WIND       PRES   REMARKS
DURANGO        SUNNY     46  37  71 E5        30.36R
CORTEZ         SUNNY     54  36  50 VRB3      30.33R
PAGOSA SPRINGS SUNNY     48  37  64 CALM      30.39R
TELLURIDE      SUNNY     47  32  56 SE5       30.46S
WOLF CREEK PAS SUNNY     37  21  52 CALM        N/A
$$

COZ009-010-012-014-032>034-037-058>063-231700-
...CENTRAL COLORADO...

CITY           SKY/WX    TMP DP  RH WIND       PRES   REMARKS
ASPEN          SUNNY     46  32  58 CALM      30.37S
BUENA VISTA    SUNNY     47  28  48 CALM      30.37R
COPPER MTN     SUNNY     37  28  70 W16G23    30.52R
BERTHOUD PASS  FAIR      28  27  93 W24G36    30.50R WCI  14
COTTONWOOD PAS SUNNY     48  27  43 SE3       30.43S
GUNNISON       SUNNY     37  30  75 CALM      30.46R
KREMMLING      FOG      N/A N/A N/A CALM        N/A  VSB 1/4
LEADVILLE      SUNNY     44  26  49 N6        30.43R
MONARCH PASS   SUNNY     32  28  86 W22       30.63R WCI  19
SALIDA         SUNNY     48  31  52 NW9       30.43S
SUNLIGHT       SUNNY     41  32  70 CALM      30.50S
WILKERSON PASS NOT AVBL
$$

COZ069>075-231700-
...SAN LUIS VALLEY/SANGRE DE CRISTO MOUNTAINS...

CITY           SKY/WX    TMP DP  RH WIND       PRES   REMARKS
ALAMOSA        SUNNY     48  31  51 CALM      30.38R
LA VETA PASS   SUNNY     43  28  56 S13G20    30.44R
SAGUACHE       SUNNY     52  32  46 NW10      30.39R
$$

COZ035-036-038>040-231700-
...NORTHERN COLORADO FRONT RANGE...

CITY           SKY/WX    TMP DP  RH WIND       PRES   REMARKS
DENVER INTL AP PTSUNNY   61  33  35 SW9       30.19R
DMNS CITY PARK   N/A     60  34  37 S7        30.18S
AURORA         MOSUNNY   59  33  36 SW10      30.21S
FRONT RANGE AP NOT AVBL
ERIE MUNI ARPT MOSUNNY   57  41  54 CALM      30.17S
BOULDER MUN AP MOSUNNY   57  36  44 CALM      30.17S
CENTENNIAL     MOSUNNY   61  33  35 SW9       30.21S
BROOMFIELD     MOSUNNY   52  36  54 VRB3      30.19S
FORT COLLINS   MOSUNNY   52  39  62 CALM      30.18S
LONGMONT       MOSUNNY   61  39  44 CALM      30.18S HAZE
$$

COZ041-046-047-076>085-087-088-231700-
...PIKES PEAK/PALMER DIVIDE AND SOUTHERN FOOTHILLS...

CITY           SKY/WX    TMP DP  RH WIND       PRES   REMARKS
COLO. SPRINGS  MOSUNNY   62  29  28 W3        30.25R
A. F. ACADEMY  SUNNY     57  33  40 VRB1      30.25F
ELLICOTT       NOT AVBL
FALCON         SUNNY     61  25  25 W5        30.28S
FORT CARSON    SUNNY     60  34  38 N3        30.23R
LIMON          SUNNY     60  42  51 NW8       30.20S
MONUMENT HILL  SUNNY     57  28  33 SW7       30.26S
TRINIDAD       SUNNY     62  36  37 W8        30.23S
$$

COZ042>045-048>051-090-091-231700-
...NORTHEAST COLORADO...

CITY           SKY/WX    TMP DP  RH WIND       PRES   REMARKS
GREELEY ARPT   MOSUNNY   52  36  54 CALM      30.18S
AKRON          SUNNY     55  41  59 W12       30.16S
BURLINGTON     SUNNY     63  45  51 S7        30.17S
WRAY           MOSUNNY   65  46  50 SW7       30.14S
STERLING       SUNNY     54  43  66 S7        30.13F
HOLYOKE        MOSUNNY   63  45  51 SW3       30.13S
FORT MORGAN    SUNNY     51  37  59 W8        30.17S
$$

COZ086-089-092>099-231700-
...SOUTHEAST COLORADO...

CITY           SKY/WX    TMP DP  RH WIND       PRES   REMARKS
PUEBLO         SUNNY     58  38  47 W3        30.20R
LA JUNTA       SUNNY     59  46  62 W7        30.19R
LAMAR          SUNNY     60  48  64 NW7       30.16S
SPRINGFIELD      N/A     65  48  54 NW12      30.17R
$$



USA.gov is the U.S. government's official web portal to all federal, state and local government web resources and services.